Hourly Data Report for June 25, 2021

CARIBOU POINT (AUT)
NOVA SCOTIA
Current Station Operator: ECCC - MSC

45°46'00.000" N
62°41'00.000" W
2.40 m
8200774
71415
WBK

Download Data

Hourly Data (June 2021)
Hourly Data Report for June 25, 2021
TIME
LST
Temp Definition
°C
Dew Point Definition
°C
Rel Hum Definition
%
Precip. Amount Definition
mm

Wind Dir Definition
10's deg

Wind Spd Definition
km/h
Visibility Definition
km
Stn Press Definition
kPa
Hmdx Definition


Wind Chill Definition


Weather Definition


00:00 15.1 8.5 64 0.0 22 12   103.09     LegendNANA
01:00 14.4 7.9 65 0.0 23 10   103.12     LegendNANA
02:00 14.1 7.1 62 0.0 22 13   103.14     LegendNANA
03:00 13.5 7.9 69 0.0 21 8   103.11     LegendNANA
04:00 12.9 7.7 71 0.0 19 8   103.13     LegendNANA
05:00 13.2 8.3 72 0.0 19 5   103.17     LegendNANA
06:00 13.7 8.0 68 0.0 21 10   103.17     LegendNANA
07:00 15.3 7.3 59 0.0 21 8   103.17     LegendNANA
08:00 17.8 9.5 58 0.0 20 11   103.18     LegendNANA
09:00 19.6 8.1 48 0.0 18 22   103.11     LegendNANA
10:00 21.1 7.2 41 0.0 20 10   103.08     LegendNANA
11:00 22.4 9.3 43 0.0 20 14   103.07     LegendNANA
12:00 23.8 8.0 36 0.0 20 10   103.02     LegendNANA
13:00 24.8 11.6 44 0.0 20 13   102.92 27   LegendNANA
14:00 25.5 11.8 43 0.0 20 15   102.85 28   LegendNANA
15:00 24.7 9.7 39 0.0 20 17   102.80 26   LegendNANA
16:00 24.0 11.3 45 0.0 20 19   102.78 26   LegendNANA
17:00 22.4 12.6 54 0.0 20 18   102.77 25   LegendNANA
18:00 22.1 13.2 57 0.0 21 15   102.74 25   LegendNANA
19:00 20.6 12.5 60 0.0 20 17   102.74     LegendNANA
20:00 18.9 12.1 65 0.0 18 14   102.79     LegendNANA
21:00 18.3 13.6 74 0.0 20 20   102.84     LegendNANA
22:00 17.8 14.2 79 0.0 19 24   102.75     LegendNANA
23:00 17.6 14.7 83 0.0 19 25   102.70     LegendNANA

Notes on Data Quality.

Legend

  • E = Estimated
  • M = Missing
  • NA = Not Available*
  • [empty] = Indicates an unobserved value
Date modified: